Location: Richmond
(37.5536°N, 77.4606°W)
Time: 18:15:29
(UTC-04:00)

ISS - Visible Passes

Search period start: 01 September 2015 00:00
Search period end: 11 September 2015 00:00
Orbit: 400 x 402 km, 51.6° (Epoch: 01 September)

Date Brightness Start Highest point End Pass type
(mag) Time Alt. Az. Time Alt. Az. Time Alt. Az.
06 Sep -1.1 06:15:32 10° S 06:18:08 23° SE 06:20:48 10° ENE visible
07 Sep -0.4 05:24:07 10° SE 05:25:02 11° SE 05:26:04 10° ESE visible
08 Sep -2.9 06:04:38 10° SW 06:07:49 59° SE 06:11:03 10° ENE visible
09 Sep -1.6 05:13:31 22° SSE 05:14:38 27° SE 05:17:28 10° ENE visible
10 Sep -0.2 04:22:46 11° ESE 04:22:46 11° ESE 04:23:12 10° E visible
10 Sep -3.0 05:55:22 17° WSW 05:57:38 53° NW 06:00:50 10° NE visible
